Location: Garos
(43.5000°N, 0.4667°W)
Time: 04:47:15
(UTC+00:00)

Cosmos 1844 - Pass Details

Date: 03 February 2023
Orbit: 822 x 868 km, 70.9° (Epoch: 26 March)

Event Time Altitude Azimuth Distance (km) Brightness Sun altitude
Rises 17:56:13 0° 340° (NNW) 3,463 7.0 -7.8°
Reaches altitude 10° 17:58:53 10° 349° (NNW) 2,522 6.2 -8.3°
Maximum altitude 18:04:15 37° 56° (NE) 1,316 4.3 -9.2°
Drops below altitude 10° 18:09:33 10° 123° (ESE) 2,495 5.7 -10.1°
Sets 18:12:11 0° 132° (SE) 3,422 6.5 -10.6°
